Regional Weather Roundup
Issued by NWS Goodland, KS

Home | Current Version | Previous Version | Text Only | Print | Product List | Glossary On
Versions: 1 2 3 4 5 6 7 8 9 10 11 12 13 14 15 16 17 18 19 20 21 22 23 24 25 26 27 28 29 30 31 32 33 34 35 36 37 38 39 40 41 42 43 44 45 46 47 48 49 50
000
ASUS43 KGLD 310708
RWRGLD

GOODLAND FORECAST AREA HOURLY WEATHER ROUNDUP
NATIONAL WEATHER SERVICE GOODLAND KS
100 AM MDT SAT JUL 31 2021

...OFFICIAL OBSERVATIONS...

CITY           SKY/WX    TMP DP  RH WIND       PRES   REMARKS
GOODLAND KS    PTCLDY    76  58  53 S12       30.09R
HILL CITY KS   PTCLDY    79  64  60 SW6       30.01S
IMPERIAL NEB   MOCLDY    74  66  76 NE9       30.08R
MCCOOK NEB     MOCLDY    72  63  73 N7        30.02S
AKRON CO       CLOUDY    74  63  68 N22G35    30.23R
BURLINGTON CO  MOCLDY    71  56  58 S9        30.13R
LIMON CO       MOCLDY    70  56  61 NW23G38   30.25S
$$

...UNOFFICIAL OBSERVATIONS...

CITY           SKY/WX    TMP DP  RH WIND       PRES   REMARKS
COLBY KS       PTCLDY    77  59  53 SW8       30.07S
NORTON KS      FAIR      79  63  57 SW7       30.04R
SHARON SPRINGS   N/A     73  56  56 S8          N/A
$$



USA.gov is the U.S. government's official web portal to all federal, state and local government web resources and services.